Afton, Prince Edward Island

3:02 PM ADT on May 28, 2017 (GMT -0300)
Afton

Weather History for 71706 - March, 2013

Change the Weather History Date:

Thursday, March 28, 2013

  Actual Average Record
Temperature  
Mean Temperature 32 °F -  
Max Temperature 37 °F 42 °F - ()
Min Temperature 28 °F 28 °F - ()
Degree Days  
Heating Degree Days 32    
Moisture  
Dew Point 28 °F    
Average Humidity 79    
Maximum Humidity 93    
Minimum Humidity 70    
Precipitation  
Precipitation 0.00 in 0.12 in - ()
Sea Level Pressure  
Sea Level Pressure 29.81 in    
Wind  
Wind Speed 9 mph ()    
Max Wind Speed 14 mph    
Max Gust Speed 18 mph    
Visibility 15.0 miles    
Events Snow    
T = Trace of Precipitation, MM = Missing Value Source: Averaged Metar Reports

Daily Weather History Graph

Daily Weather History Graph

Search for Another Location

Airport or City:

Trip Planner

Search our weather history database for the weather conditions in past years. The results will help you decide how hot, cold, wet, or windy it might be!

Date:

Astronomy

Mar. 28, 2013 Rise Set
Actual Time 6:59 AM ADT 7:36 PM ADT
Civil Twilight 6:29 AM ADT 8:06 PM ADT
Nautical Twilight 5:53 AM ADT 8:42 PM ADT
Astronomical Twilight 5:16 AM ADT 9:19 PM ADT
Moon 9:31 PM ADT 7:18 AM ADT
Length of Visible Light 13h 37m
Length of Day
12h 36m
Full, 98% of the Moon is Illuminated
Mar 28
Full
Apr 3
Last Quarter
Apr 10
New
Apr 18
First Quarter
Apr 25
Full

Hourly Weather History & Observations

Time (ADT) Temp. Windchill Dew Point Humidity Pressure Visibility Wind Dir Wind Speed Gust Speed Precip Events Conditions
12:00 AM 33.8 °F 25.8 °F 30.2 °F 87% 29.76 in 15.0 mi North 10.4 mph - N/A   Overcast
2:00 AM 35.6 °F 27.1 °F 28.4 °F 75% 29.76 in 15.0 mi North 12.7 mph - N/A   Overcast
3:00 AM 35 °F - 29 °F 71% 29.76 in 15 mi North 11.5 mph - -   Overcast
3:00 AM 35.6 °F 27.1 °F 28.4 °F 75% 29.76 in 15.0 mi North 12.7 mph - N/A   Overcast
4:00 AM 33.8 °F 26.4 °F 28.4 °F 81% 29.76 in 15.0 mi North 9.2 mph 18.4 mph N/A   Overcast
5:00 AM 33.8 °F 25.8 °F 28.4 °F 81% 29.76 in 15.0 mi NNE 10.4 mph - N/A   Overcast
6:00 AM 33.8 °F 25.8 °F 28.4 °F 81% 29.77 in 15.0 mi North 10.4 mph - N/A   Mostly Cloudy
7:00 AM 33.8 °F 27.0 °F 28.4 °F 81% 29.77 in 15.0 mi North 8.1 mph - N/A   Mostly Cloudy
8:00 AM 33.8 °F 26.4 °F 28.4 °F 81% 29.79 in 15.0 mi North 9.2 mph - N/A   Mostly Cloudy
9:00 AM 34 °F - 29 °F 75% 29.81 in 15 mi NNE 12.7 mph - -   Mostly Cloudy
9:00 AM 33.8 °F 24.3 °F 28.4 °F 81% 29.81 in 15.0 mi NNE 13.8 mph - N/A   Mostly Cloudy
10:00 AM 35.6 °F 28.0 °F 28.4 °F 75% 29.81 in 15.0 mi NNE 10.4 mph - N/A   Mostly Cloudy
10:43 AM 35.6 °F 26.6 °F 28.4 °F 75% 29.82 in 15.0 mi NNE 13.8 mph - N/A   Mostly Cloudy
11:00 AM 35.6 °F 27.5 °F 28.4 °F 75% 29.82 in 15.0 mi North 11.5 mph - N/A   Mostly Cloudy
12:00 PM 37.4 °F 30.8 °F 28.4 °F 70% 29.82 in 15.0 mi North 9.2 mph - N/A   Mostly Cloudy
1:00 PM 37.4 °F 30.8 °F 28.4 °F 70% 29.82 in 15.0 mi North 9.2 mph - N/A   Mostly Cloudy
1:29 PM 35.6 °F 27.5 °F 28.4 °F 75% 29.83 in 15.0 mi North 11.5 mph - N/A   Overcast
1:34 PM 35.6 °F 29.2 °F 28.4 °F 75% 29.83 in 15.0 mi NNW 8.1 mph - N/A Snow Light Snow
2:00 PM 35.6 °F 28.0 °F 30.2 °F 81% 29.83 in 15.0 mi North 10.4 mph - N/A   Mostly Cloudy
3:00 PM 35 °F - 29 °F 70% 29.83 in 15 mi NNW 10.4 mph - -   Partly Cloudy
3:00 PM 35.6 °F 28.6 °F 28.4 °F 75% 29.83 in 15.0 mi NNW 9.2 mph - N/A   Mostly Cloudy
4:00 PM 35.6 °F 27.5 °F 28.4 °F 75% 29.83 in 15.0 mi NNW 11.5 mph 17.3 mph N/A   Scattered Clouds
5:00 PM 35.6 °F 28.0 °F 28.4 °F 75% 29.83 in 15.0 mi NNW 10.4 mph 17.3 mph N/A   Partly Cloudy
6:00 PM 35.6 °F 28.6 °F 28.4 °F 75% 29.83 in 15.0 mi North 9.2 mph - N/A   Partly Cloudy
7:00 PM 33.8 °F 27.7 °F 26.6 °F 75% 29.84 in 15.0 mi North 6.9 mph - N/A   Partly Cloudy
8:00 PM 30.2 °F 25.4 °F 26.6 °F 86% 29.85 in 15.0 mi NNW 4.6 mph - N/A   Partly Cloudy
9:00 PM 29 °F - 27 °F 87% 29.86 in 15 mi NW 4.6 mph - -   Scattered Clouds
9:00 PM 28.4 °F 23.3 °F 26.6 °F 93% 29.85 in 15.0 mi NW 4.6 mph - N/A   Partly Cloudy
10:00 PM 28.4 °F 24.6 °F 26.6 °F 93% 29.86 in 15.0 mi NW 3.5 mph - N/A   Partly Cloudy
11:00 PM 28.4 °F 22.2 °F 26.6 °F 93% 29.85 in 15.0 mi WNW 5.8 mph - N/A   Partly Cloudy